CW5255 Weather Reports


time (UTC)temp
C
wind
direction
speed
KPH
gust
KPH
rain 1hr
cm
rain 24hr
cm
rain mn
cm
humidity
%
barometer
mb
20200407044057 8 187 0.0 3.2 0.00 0.03 0.00 59 1016.9
20200407043556 8 187 0.0 0.0 0.00 0.03 0.00 61 1016.9
20200407043055 8 187 0.0 0.0 0.00 0.03 0.00 58 1016.9
20200407042555 8 187 0.0 0.0 0.00 0.03 0.00 58 1017.0
20200407042055 8 187 0.0 0.0 0.00 0.03 0.00 58 1016.9
20200407041555 8 187 0.0 0.0 0.00 0.03 0.00 56 1016.9
20200407041055 8 187 0.0 0.0 0.00 0.03 0.00 55 1016.9
20200407040554 8 187 0.0 1.6 0.00 0.03 0.00 55 1016.9
20200407040054 8 187 0.0 1.6 0.00 0.03 0.00 55 1017.0
20200407035554 8 187 0.0 0.0 0.00 0.03 0.03 55 1016.8
20200407035054 8 187 0.0 0.0 0.00 0.03 0.03 54 1016.8
20200407034555 8 187 0.0 0.0 0.00 0.03 0.03 53 1016.8
20200407034054 8 187 0.0 0.0 0.00 0.03 0.03 54 1016.9
20200407033554 9 187 0.0 1.6 0.00 0.03 0.03 56 1016.9
20200407033054 9 187 0.0 1.6 0.00 0.03 0.03 52 1017.0
20200407032553 9 187 1.6 1.6 0.00 0.03 0.03 52 1017.0
20200407032054 9 187 0.0 0.0 0.00 0.03 0.03 52 1017.0
20200407031553 9 187 0.0 0.0 0.00 0.03 0.03 51 1016.9
20200407031053 9 187 0.0 0.0 0.00 0.03 0.03 52 1016.9
20200407030553 10 187 0.0 0.0 0.00 0.03 0.03 54 1017.0
20200407030054 10 187 0.0 1.6 0.00 0.03 0.03 50 1017.2
20200407025553 10 187 0.0 3.2 0.00 0.03 0.03 49 1017.1
20200407025052 10 187 1.6 3.2 0.00 0.03 0.03 50 1017.0
20200407024552 10 187 0.0 0.0 0.00 0.03 0.03 49 1017.1
20200407024052 10 187 0.0 0.0 0.00 0.03 0.03 48 1017.2
20200407023552 10 187 0.0 0.0 0.00 0.03 0.03 49 1017.3
20200407023052 10 187 0.0 0.0 0.00 0.03 0.03 49 1017.3
20200407022553 10 187 0.0 0.0 0.00 0.03 0.03 49 1017.4
20200407022051 10 187 0.0 0.0 0.00 0.03 0.03 48 1017.4
20200407021551 10 187 0.0 0.0 0.00 0.03 0.03 48 1017.3
20200407021051 11 187 0.0 1.6 0.00 0.03 0.03 48 1017.3
20200407020551 11 187 0.0 3.2 0.00 0.03 0.03 48 1017.4
20200407020051 11 187 1.6 3.2 0.00 0.05 0.03 47 1017.2
20200407015551 11 187 0.0 1.6 0.00 0.05 0.03 46 1017.1
20200407015051 11 187 0.0 4.8 0.00 0.05 0.03 45 1017.2
20200407014551 12 187 0.0 4.8 0.00 0.05 0.03 45 1017.0
20200407014050 12 107 3.2 3.2 0.00 0.05 0.03 44 1017.0
20200407013550 12 107 0.0 3.2 0.00 0.05 0.03 43 1016.9
20200407013050 12 107 0.0 3.2 0.00 0.05 0.03 42 1016.8
20200407012550 12 107 1.6 3.2 0.00 0.05 0.03 42 1016.8
20200407012050 12 107 1.6 1.6 0.00 0.05 0.03 42 1016.8
20200407011549 13 107 0.0 0.0 0.00 0.05 0.03 40 1016.9
20200407011049 13 107 0.0 0.0 0.00 0.05 0.03 40 1017.0
20200407010550 13 107 0.0 0.0 0.00 0.05 0.03 39 1016.8
20200407010049 13 107 0.0 0.0 0.00 0.05 0.03 39 1016.7
20200407005549 13 107 0.0 0.0 0.00 0.05 0.03 39 1016.7
20200407005049 14 107 0.0 3.2 0.00 0.05 0.03 39 1016.5
20200407004549 14 107 0.0 3.2 0.00 0.05 0.03 39 1016.6
20200407004049 14 107 1.6 4.8 0.00 0.05 0.03 38 1016.4
20200407003549 15 107 1.6 4.8 0.00 0.05 0.03 38 1016.5
20200407003049 15 107 0.0 1.6 0.00 0.05 0.03 37 1016.5
20200407002548 15 107 0.0 4.8 0.00 0.05 0.03 37 1016.4
20200407002048 15 107 0.0 4.8 0.00 0.05 0.03 37 1016.2
20200407001548 15 107 3.2 4.8 0.00 0.05 0.03 36 1016.2
20200407001048 16 107 0.0 4.8 0.00 0.05 0.03 36 1016.2
20200407000550 16 107 4.8 8.0 0.00 0.05 0.03 36 1016.1
20200407000047 16 89 4.8 8.0 0.00 0.05 0.03 35 1016.1
20200406235547 16 85 1.6 6.4 0.00 0.05 0.03 35 1016.0
20200406235047 16 85 1.6 6.4 0.00 0.05 0.03 35 1016.0
20200406234547 17 85 0.0 8.0 0.00 0.05 0.03 35 1015.9
20200406234047 17 132 0.0 12.9 0.00 0.05 0.03 34 1016.0
20200406233547 17 134 3.2 12.9 0.00 0.05 0.03 32 1016.0
20200406233046 17 98 1.6 6.4 0.00 0.05 0.03 31 1016.0
20200406232546 17 78 1.6 9.7 0.00 0.05 0.03 30 1015.9
20200406232046 18 78 3.2 9.7 0.00 0.05 0.03 30 1015.9
20200406231546 18 314 3.2 3.2 0.00 0.05 0.03 29 1016.0
20200406231046 18 314 0.0 1.6 0.00 0.05 0.03 28 1015.9
20200406230546 18 314 0.0 1.6 0.00 0.05 0.03 27 1016.2
20200406230116 18 314 0.0 3.2 0.00 0.05 0.03 27 1016.2
20200406225545 18 314 0.0 4.8 0.00 0.05 0.03 27 1016.1
20200406225045 18 314 0.0 4.8 0.00 0.05 0.03 27 1016.1
20200406224545 18 355 3.2 6.4 0.00 0.05 0.03 27 1016.1
20200406224045 18 355 1.6 6.4 0.00 0.05 0.03 26 1016.1
20200406223545 18 303 0.0 4.8 0.00 0.05 0.03 27 1016.1
20200406223045 19 307 3.2 6.4 0.00 0.05 0.03 27 1016.2
20200406222545 19 355 0.0 12.9 0.00 0.05 0.03 26 1016.2
20200406222045 19 319 6.4 12.9 0.00 0.08 0.03 27 1016.2
20200406221544 19 291 4.8 9.7 0.00 0.08 0.03 28 1016.2
20200406221044 19 12 3.2 9.7 0.00 0.08 0.03 26 1016.2
20200406220544 19 336 9.7 12.9 0.00 0.08 0.03 25 1016.2
20200406220044 20 204 1.6 12.9 0.00 0.08 0.03 25 1016.2
20200406215544 20 22 1.6 12.9 0.00 0.08 0.03 24 1016.1
20200406215043 20 336 1.6 12.9 0.00 0.08 0.03 23 1016.2
20200406214613 20 25 6.4 9.7 0.00 0.08 0.03 23 1016.2
20200406214043 20 348 0.0 14.5 0.00 0.10 0.03 23 1016.2
20200406213543 20 31 6.4 14.5 0.00 0.10 0.03 23 1016.2
20200406213043 20 342 6.4 9.7 0.00 0.10 0.03 22 1016.1
20200406212543 20 273 0.0 12.9 0.00 0.10 0.03 23 1016.2
20200406212042 20 284 1.6 12.9 0.00 0.10 0.03 23 1016.3
20200406211543 20 323 4.8 11.3 0.00 0.10 0.03 23 1016.4
20200406211043 20 317 1.6 11.3 0.00 0.10 0.03 27 1016.3
20200406210543 20 292 4.8 11.3 0.00 0.10 0.03 22 1016.5
20200406210112 20 360 3.2 11.3 0.00 0.10 0.03 22 1016.5
20200406205542 20 277 4.8 14.5 0.00 0.10 0.03 25 1016.5
20200406205042 20 43 9.7 14.5 0.00 0.10 0.03 21 1016.6
20200406204541 20 200 4.8 9.7 0.00 0.10 0.03 22 1016.7
20200406204042 20 15 3.2 9.7 0.00 0.10 0.03 23 1016.7
20200406203541 20 67 3.2 12.9 0.00 0.10 0.03 25 1016.8
20200406203041 20 34 3.2 12.9 0.00 0.10 0.03 20 1016.8
20200406202611 20 306 3.2 11.3 0.00 0.10 0.03 22 1016.9
20200406202113 20 80 4.8 14.5 0.00 0.10 0.03 22 1017.0
20200406201612 20 93 1.6 14.5 0.00 0.10 0.03 21 1017.1
20200406201040 20 45 3.2 14.5 0.00 0.10 0.03 22 1016.9
20200406200540 20 269 9.7 14.5 0.00 0.10 0.03 21 1016.9
20200406200110 20 360 12.9 16.1 0.00 0.10 0.03 23 1016.9
20200406195610 20 348 3.2 16.1 0.00 0.10 0.03 24 1017.0
20200406195111 20 5 8.0 16.1 0.00 0.10 0.03 22 1017.1
20200406194610 20 342 4.8 11.3 0.00 0.10 0.03 23 1017.2
20200406194039 20 298 6.4 11.3 0.00 0.10 0.03 25 1017.4
20200406193539 20 345 4.8 11.3 0.00 0.10 0.03 23 1017.5
20200406193039 20 26 1.6 14.5 0.00 0.10 0.03 27 1017.4
20200406192609 20 88 3.2 16.1 0.00 0.10 0.03 25 1017.5
20200406192109 20 338 6.4 16.1 0.00 0.10 0.03 25 1017.7
20200406191609 19 229 3.2 11.3 0.00 0.10 0.03 24 1017.7
20200406191040 19 199 3.2 11.3 0.00 0.10 0.03 25 1017.9
20200406190608 19 69 3.2 12.9 0.00 0.10 0.03 27 1018.0
20200406190108 19 61 3.2 16.1 0.00 0.10 0.03 25 1018.1
20200406185608 19 78 4.8 16.1 0.00 0.10 0.03 25 1018.2
20200406185108 19 94 11.3 14.5 0.00 0.10 0.03 24 1018.3
20200406184608 19 66 14.5 14.5 0.00 0.10 0.03 23 1018.3
20200406184108 19 73 4.8 16.1 0.00 0.10 0.03 24 1018.5
20200406183608 19 13 12.9 16.1 0.00 0.10 0.03 23 1018.5
20200406183107 19 5 9.7 16.1 0.00 0.10 0.03 23 1018.6
20200406182607 19 90 4.8 11.3 0.00 0.10 0.03 23 1018.6
20200406182037 19 52 4.8 8.0 0.00 0.10 0.03 25 1018.7
20200406181607 19 227 3.2 6.4 0.00 0.10 0.03 25 1018.7
20200406181106 19 319 3.2 14.5 0.00 0.10 0.03 24 1018.9
20200406180536 18 299 6.4 19.3 0.00 0.10 0.03 25 1019.0
20200406180120 18 355 6.4 19.3 0.00 0.10 0.03 26 1019.0
20200406175606 18 83 4.8 12.9 0.00 0.10 0.03 29 1019.0
20200406175106 18 57 11.3 14.5 0.00 0.10 0.03 27 1019.1
20200406174606 18 24 6.4 14.5 0.00 0.10 0.03 26 1019.3
20200406174105 18 61 0.0 16.1 0.00 0.10 0.03 25 1019.2
20200406173605 18 86 12.9 16.1 0.00 0.10 0.03 28 1019.4
20200406173106 18 76 16.1 16.1 0.00 0.10 0.03 28 1019.4
20200406172606 18 312 0.0 9.7 0.00 0.10 0.03 29 1019.3
20200406172105 18 250 1.6 16.1 0.00 0.10 0.03 28 1019.4
20200406171606 18 339 3.2 16.1 0.00 0.10 0.03 26 1019.6
20200406171104 18 306 4.8 14.5 0.00 0.10 0.03 21 1019.4
20200406170605 18 342 8.0 14.5 0.00 0.10 0.03 27 1019.5
20200406170104 18 282 3.2 16.1 0.00 0.10 0.03 24 1019.5
20200406165604 18 340 9.7 16.1 0.00 0.10 0.03 22 1019.7
20200406165104 18 348 1.6 16.1 0.00 0.10 0.03 24 1019.8
20200406164604 17 254 4.8 14.5 0.00 0.10 0.03 25 1019.7
20200406164103 17 105 1.6 17.7 0.00 0.10 0.03 31 1019.8
20200406163603 17 303 8.0 17.7 0.00 0.10 0.03 34 1019.8
20200406163103 17 260 3.2 17.7 0.00 0.10 0.03 34 1019.8
20200406162603 17 74 4.8 17.7 0.00 0.10 0.03 32 1019.8
20200406162103 17 81 8.0 14.5 0.00 0.10 0.03 34 1019.9
20200406161613 17 273 1.6 17.7 0.00 0.10 0.03 36 1019.9
20200406161103 16 360 6.4 17.7 0.00 0.10 0.03 34 1019.9
20200406160606 16 19 6.4 14.5 0.00 0.10 0.03 36 1020.0
20200406160103 16 49 3.2 14.5 0.00 0.10 0.03 35 1020.0
20200406155603 16 63 9.7 16.1 0.00 0.10 0.03 36 1020.0
20200406155103 16 28 4.8 16.1 0.00 0.10 0.03 36 1020.1
20200406154602 16 27 1.6 14.5 0.00 0.10 0.03 36 1020.1
20200406154102 16 86 11.3 17.7 0.00 0.10 0.03 39 1020.2
20200406153601 16 338 3.2 17.7 0.00 0.10 0.03 37 1020.3
20200406153102 15 23 3.2 16.1 0.00 0.10 0.03 38 1020.3
20200406152601 15 86 4.8 12.9 0.00 0.10 0.03 44 1020.3
20200406152101 15 67 4.8 16.1 0.00 0.10 0.03 43 1020.3
20200406151601 15 5 0.0 16.1 0.00 0.10 0.03 48 1020.3
20200406151100 15 355 16.1 16.1 0.00 0.10 0.03 47 1020.3
20200406150600 15 335 4.8 16.1 0.00 0.10 0.03 53 1020.3
20200406150100 15 154 3.2 16.1 0.00 0.10 0.03 57 1020.3
20200406145600 14 40 14.5 14.5 0.00 0.10 0.03 56 1020.4
20200406145059 14 355 0.0 12.9 0.00 0.10 0.03 58 1020.4
20200406144600 13 25 12.9 16.1 0.00 0.10 0.03 60 1020.2
20200406144100 13 338 8.0 16.1 0.00 0.10 0.03 62 1020.2
20200406143559 13 12 4.8 12.9 0.00 0.10 0.03 66 1020.2
20200406143059 12 36 1.6 12.9 0.00 0.10 0.03 66 1020.2
20200406142559 12 322 3.2 14.5 0.00 0.10 0.03 69 1020.2
20200406142059 12 5 4.8 14.5 0.00 0.10 0.03 69 1020.2
20200406141559 12 71 9.7 17.7 0.00 0.10 0.03 67 1020.2
20200406141058 12 355 4.8 17.7 0.00 0.10 0.03 69 1020.2
20200406140558 12 350 12.9 16.1 0.00 0.10 0.03 67 1020.1
20200406140058 12 351 9.7 11.3 0.00 0.10 0.03 71 1020.2
20200406135627 12 82 1.6 14.5 0.00 0.10 0.03 69 1020.2
20200406135058 12 350 6.4 14.5 0.00 0.10 0.03 70 1020.1
20200406134557 11 23 9.7 12.9 0.00 0.10 0.03 72 1020.1
20200406134057 11 53 3.2 12.9 0.00 0.10 0.03 72 1020.2
20200406133557 11 15 8.0 12.9 0.00 0.10 0.03 71 1020.2
20200406133057 11 40 0.0 11.3 0.00 0.10 0.03 73 1020.2
20200406132557 11 360 1.6 11.3 0.00 0.10 0.03 74 1020.2
20200406132057 11 69 4.8 12.9 0.00 0.10 0.03 74 1020.2
20200406131557 11 5 9.7 12.9 0.00 0.10 0.03 75 1020.2
20200406131056 11 5 12.9 16.1 0.00 0.10 0.03 75 1020.1
20200406130556 11 63 4.8 17.7 0.00 0.10 0.03 75 1020.1
20200406130056 11 19 8.0 17.7 0.03 0.10 0.03 76 1020.0
20200406125556 11 298 3.2 11.3 0.03 0.10 0.03 78 1020.0
20200406125056 11 30 3.2 11.3 0.03 0.10 0.03 77 1020.0
20200406124556 11 92 11.3 14.5 0.03 0.10 0.03 77 1020.0
20200406124056 11 54 6.4 16.1 0.03 0.10 0.03 79 1019.9
20200406123555 11 17 4.8 16.1 0.03 0.10 0.03 79 1020.0
20200406123055 11 53 0.0 16.1 0.03 0.10 0.03 79 1020.0
20200406122555 11 24 6.4 16.1 0.03 0.10 0.03 79 1020.0
20200406122055 11 5 9.7 14.5 0.03 0.10 0.03 79 1020.0
20200406121555 11 33 1.6 11.3 0.03 0.10 0.03 81 1019.8
20200406121054 11 36 4.8 11.3 0.03 0.10 0.03 81 1019.8
20200406120554 11 348 1.6 11.3 0.03 0.10 0.03 81 1019.7
20200406120054 11 355 9.7 11.3 0.00 0.08 0.00 81 1019.7
20200406115554 11 345 1.6 11.3 0.00 0.08 0.00 81 1019.5
20200406115054 11 360 0.0 11.3 0.00 0.08 0.00 80 1019.6
20200406114554 11 5 0.0 8.0 0.00 0.08 0.00 81 1019.5
20200406114053 11 345 8.0 11.3 0.00 0.08 0.00 82 1019.4
20200406113553 11 360 3.2 11.3 0.00 0.08 0.00 82 1019.3
20200406113054 11 20 1.6 8.0 0.00 0.08 0.00 84 1019.4
20200406112553 11 355 1.6 6.4 0.00 0.08 0.00 84 1019.4
20200406112053 10 339 1.6 4.8 0.00 0.08 0.00 85 1019.3
20200406111554 10 300 0.0 4.8 0.00 0.08 0.00 85 1019.2
20200406111052 10 326 0.0 6.4 0.00 0.08 0.00 85 1019.1
20200406110553 10 319 0.0 6.4 0.00 0.08 0.00 85 1018.9
20200406110052 10 342 1.6 4.8 0.00 0.08 0.00 85 1018.8
20200406105552 10 355 0.0 3.2 0.00 0.08 0.00 85 1018.8
20200406105052 10 355 0.0 3.2 0.00 0.08 0.00 85 1018.8
20200406104553 11 360 0.0 3.2 0.00 0.08 0.00 85 1018.7
20200406104052 11 334 0.0 3.2 0.00 0.08 0.00 85 1018.5
20200406103552 11 334 0.0 3.2 0.00 0.08 0.00 85 1018.4
20200406103051 11 334 0.0 3.2 0.00 0.08 0.00 85 1018.5
20200406102551 11 334 1.6 3.2 0.00 0.08 0.00 85 1018.4
20200406102051 11 334 0.0 1.6 0.00 0.08 0.00 85 1018.3
20200406101551 11 334 1.6 1.6 0.00 0.08 0.00 85 1018.4
20200406101051 11 334 0.0 4.8 0.00 0.08 0.00 85 1018.5
20200406100551 11 334 0.0 4.8 0.00 0.08 0.00 85 1018.4
20200406100051 11 334 0.0 3.2 0.00 0.08 0.00 85 1018.3
20200406095551 11 334 0.0 3.2 0.00 0.08 0.00 85 1018.4
20200406095050 11 334 0.0 3.2 0.00 0.08 0.00 85 1018.4
20200406094550 11 334 0.0 3.2 0.00 0.08 0.00 85 1018.4
20200406094050 11 312 0.0 1.6 0.00 0.08 0.00 86 1018.4
20200406093550 11 312 0.0 1.6 0.00 0.08 0.00 86 1018.3
20200406093050 11 312 0.0 3.2 0.00 0.08 0.00 86 1018.4
20200406092551 11 312 1.6 3.2 0.00 0.08 0.00 86 1018.4
20200406091049 11 311 0.0 3.2 0.00 0.08 0.00 86 1018.2
20200406090550 11 311 0.0 3.2 0.00 0.08 0.00 86 1018.3
20200406090049 11 314 0.0 1.6 0.00 0.08 0.00 85 1018.2
20200406085548 11 314 0.0 3.2 0.00 0.08 0.00 86 1018.4
20200406085048 11 314 0.0 3.2 0.00 0.08 0.00 85 1018.5
20200406084548 11 314 0.0 3.2 0.00 0.08 0.00 86 1018.5
20200406084048 11 314 0.0 4.8 0.00 0.08 0.00 85 1018.5
20200406083548 11 314 0.0 4.8 0.00 0.08 0.00 85 1018.4
20200406083047 11 314 0.0 3.2 0.00 0.08 0.00 85 1018.3
20200406082548 11 314 0.0 3.2 0.00 0.08 0.00 85 1018.3
20200406082047 11 314 0.0 1.6 0.00 0.08 0.00 85 1018.3
20200406081547 11 314 0.0 6.4 0.00 0.08 0.00 85 1018.3
20200406081047 11 314 0.0 6.4 0.00 0.08 0.00 85 1018.3
20200406080546 11 259 1.6 4.8 0.00 0.08 0.00 85 1018.3
20200406080047 11 273 3.2 4.8 0.00 0.08 0.00 85 1018.4
20200406075547 11 29 0.0 3.2 0.00 0.08 0.00 85 1018.4
20200406075046 11 29 0.0 4.8 0.00 0.08 0.00 85 1018.4
20200406074547 11 29 1.6 4.8 0.00 0.08 0.00 85 1018.3
20200406074047 11 29 0.0 3.2 0.00 0.08 0.00 85 1018.4
20200406073546 11 29 1.6 1.6 0.00 0.08 0.00 85 1018.4
20200406073046 11 29 0.0 1.6 0.00 0.08 0.00 85 1018.3
20200406072547 11 29 0.0 3.2 0.00 0.08 0.00 85 1018.3
20200406072045 11 29 0.0 3.2 0.00 0.08 0.00 85 1018.4
20200406071546 11 29 0.0 3.2 0.00 0.08 0.00 85 1018.4
20200406071045 11 29 3.2 3.2 0.00 0.08 0.00 85 1018.5
20200406070545 11 30 0.0 1.6 0.00 0.08 0.00 85 1018.5
20200406070045 11 30 0.0 3.2 0.00 0.08 0.00 84 1018.6
20200406065545 11 30 0.0 3.2 0.00 0.08 0.00 84 1018.5
20200406065045 11 30 0.0 3.2 0.00 0.08 0.00 84 1018.5
20200406064545 11 30 1.6 3.2 0.00 0.08 0.00 83 1018.6
20200406064045 11 30 3.2 3.2 0.00 0.08 0.00 83 1018.6
20200406063544 11 30 1.6 6.4 0.00 0.08 0.00 83 1018.6
20200406063044 11 30 0.0 6.4 0.00 0.08 0.00 82 1018.6
20200406062544 11 78 1.6 6.4 0.00 0.08 0.00 82 1018.6
20200406062044 11 78 1.6 6.4 0.00 0.08 0.00 81 1018.5
20200406061544 12 78 1.6 4.8 0.00 0.08 0.00 81 1018.6
20200406061043 12 78 3.2 4.8 0.00 0.08 0.00 80 1018.6
20200406060543 12 78 0.0 3.2 0.00 0.08 0.00 79 1018.6
20200406060335 12 78 0.0 3.2 0.00 0.08 0.00 79 1018.6
20200406055543 12 78 0.0 4.8 0.00 0.08 0.00 78 1018.3
20200406055043 13 78 1.6 4.8 0.00 0.08 0.00 77 1018.5
20200406054542 13 78 0.0 3.2 0.00 0.08 0.00 77 1018.6
20200406054043 13 78 0.0 1.6 0.00 0.08 0.00 77 1018.5
20200406053543 13 78 1.6 3.2 0.00 0.08 0.00 77 1018.5
20200406053043 13 78 0.0 4.8 0.00 0.08 0.00 77 1018.5
20200406052542 13 78 1.6 8.0 0.00 0.08 0.00 76 1018.5
20200406052042 13 78 0.0 14.5 0.00 0.08 0.00 76 1018.6
20200406051542 13 86 6.4 14.5 0.00 0.08 0.00 75 1018.5
20200406051112 13 63 3.2 14.5 0.00 0.08 0.00 76 1018.5
20200406050541 13 319 0.0 14.5 0.00 0.08 0.00 75 1018.6
20200406050041 13 334 1.6 6.4 0.00 0.08 0.00 75 1018.5
20200406045557 13 159 6.4 17.7 0.00 0.08 0.00 76 1018.4
20200406045041 13 319 4.8 17.7 0.00 0.08 0.00 75 1018.4
20200406044541 13 323 0.0 14.5 0.00 0.08 0.00 76 1018.5